TimeCDT,TemperatureF,Dew PointF,Humidity,Sea Level PressureIn,VisibilityMPH,Wind Direction,Wind SpeedMPH,Gust SpeedMPH,PrecipitationIn,Events,Conditions,WindDirDegrees,DateUTC
12:35 AM,55.4,50.0,82,30.12,7.0,Calm,Calm,-,N/A,,Scattered Clouds,0,2014-04-02 05:35:00
12:41 AM,55.4,50.0,82,30.13,7.0,Calm,Calm,-,N/A,,Mostly Cloudy,0,2014-04-02 05:41:00
12:56 AM,57.0,52.0,83,30.11,6.0,Calm,Calm,-,N/A,,Haze,0,2014-04-02 05:56:00
1:31 AM,57.2,53.6,88,30.12,1.8,Calm,Calm,-,N/A,,Overcast,0,2014-04-02 06:31:00
1:33 AM,57.2,53.6,88,30.12,1.0,Calm,Calm,-,N/A,,Overcast,0,2014-04-02 06:33:00
1:40 AM,57.2,53.6,88,30.12,0.2,Calm,Calm,-,N/A,Fog,Fog,0,2014-04-02 06:40:00
1:56 AM,59.0,55.0,87,30.10,0.2,Calm,Calm,-,N/A,Fog,Fog,0,2014-04-02 06:56:00
2:56 AM,59.0,55.9,90,30.10,0.2,Calm,Calm,-,N/A,Fog,Fog,0,2014-04-02 07:56:00
3:56 AM,60.1,55.9,86,30.10,0.2,South,3.5,-,N/A,Fog,Fog,170,2014-04-02 08:56:00
4:05 AM,60.8,55.4,82,30.11,0.5,South,3.5,-,N/A,Fog,Fog,170,2014-04-02 09:05:00
4:32 AM,60.8,55.4,82,30.11,0.2,Calm,Calm,-,N/A,Fog,Fog,0,2014-04-02 09:32:00
4:56 AM,60.1,55.9,86,30.11,0.5,Calm,Calm,-,N/A,Fog,Fog,0,2014-04-02 09:56:00
5:23 AM,60.8,55.4,82,30.12,0.2,Calm,Calm,-,N/A,Fog,Fog,0,2014-04-02 10:23:00
5:56 AM,60.1,55.9,86,30.12,0.2,Calm,Calm,-,N/A,Fog,Fog,0,2014-04-02 10:56:00
7:56 AM,60.1,57.0,90,30.14,0.2,Variable,3.5,-,N/A,Fog,Fog,0,2014-04-02 12:56:00
8:11 AM,60.8,55.4,82,30.15,0.5,South,3.5,-,N/A,Fog,Fog,180,2014-04-02 13:11:00
8:32 AM,60.8,57.2,88,30.15,1.2,Variable,3.5,-,N/A,,Overcast,0,2014-04-02 13:32:00
8:40 AM,62.6,57.2,82,30.15,1.8,Calm,Calm,-,N/A,,Haze,0,2014-04-02 13:40:00
8:49 AM,62.6,57.2,82,30.16,3.0,SSE,3.5,-,N/A,,Haze,160,2014-04-02 13:49:00
8:56 AM,63.0,57.9,84,30.15,5.0,Calm,Calm,-,N/A,,Haze,0,2014-04-02 13:56:00
9:10 AM,64.4,57.2,77,30.16,10.0,Calm,Calm,-,N/A,,Overcast,0,2014-04-02 14:10:00
9:44 AM,66.2,57.2,73,30.17,10.0,Calm,Calm,-,N/A,,Mostly Cloudy,0,2014-04-02 14:44:00
9:51 AM,68.0,57.2,68,30.17,10.0,Calm,Calm,-,N/A,,Partly Cloudy,0,2014-04-02 14:51:00
9:56 AM,68.0,57.9,70,30.17,10.0,SSE,3.5,-,N/A,,Partly Cloudy,150,2014-04-02 14:56:00
10:08 AM,69.8,59.0,68,30.18,10.0,South,4.6,-,N/A,,Partly Cloudy,170,2014-04-02 15:08:00
10:56 AM,73.9,60.1,62,30.17,10.0,SSW,5.8,-,N/A,,Clear,210,2014-04-02 15:56:00
11:56 AM,78.1,61.0,56,30.15,10.0,WSW,5.8,-,N/A,,Overcast,240,2014-04-02 16:56:00
12:15 PM,78.8,60.8,54,30.16,10.0,Variable,5.8,-,N/A,,Overcast,0,2014-04-02 17:15:00
12:23 PM,80.6,60.8,51,30.15,10.0,Variable,6.9,-,N/A,,Mostly Cloudy,0,2014-04-02 17:23:00
12:56 PM,81.0,60.1,49,30.13,10.0,West,10.4,-,N/A,,Mostly Cloudy,260,2014-04-02 17:56:00
1:56 PM,82.9,57.9,42,30.11,10.0,SSW,8.1,-,N/A,,Scattered Clouds,210,2014-04-02 18:56:00
2:56 PM,84.0,57.9,41,30.08,10.0,Variable,5.8,16.1,N/A,,Mostly Cloudy,0,2014-04-02 19:56:00
3:56 PM,84.9,57.0,38,30.07,10.0,West,4.6,-,N/A,,Scattered Clouds,270,2014-04-02 20:56:00
4:56 PM,82.0,59.0,45,30.07,10.0,SSW,8.1,-,N/A,,Partly Cloudy,200,2014-04-02 21:56:00
5:56 PM,80.1,59.0,48,30.08,10.0,WSW,8.1,-,N/A,,Clear,240,2014-04-02 22:56:00
6:56 PM,75.9,59.0,56,30.09,10.0,SW,4.6,-,N/A,,Clear,220,2014-04-02 23:56:00
7:56 PM,73.0,59.0,61,30.09,10.0,South,4.6,-,N/A,,Clear,190,2014-04-03 00:56:00
8:56 PM,71.1,59.0,66,30.10,10.0,SSW,4.6,-,N/A,,Clear,210,2014-04-03 01:56:00
9:56 PM,69.1,60.1,73,30.11,10.0,SSW,4.6,-,N/A,,Clear,210,2014-04-03 02:56:00
10:56 PM,66.9,60.1,79,30.10,10.0,SSW,3.5,-,N/A,,Clear,210,2014-04-03 03:56:00
11:56 PM,66.9,61.0,81,30.09,10.0,SSW,4.6,-,N/A,,Clear,200,2014-04-03 04:56:00